FREGAT DEB

Last updated on Wed Sep 17 2025 00:02:11 GMT+0000 (Coordinated Universal Time)

1 49271U 11037PF 25258.84307323 .00009348 00000+0 16417-1 0 9990 2 49271 51.6372 99.4314 0947384 32.1743 333.3482 12.33110650191081
UTC large
Height (km)
Speed (km/s)
/
Latitude / Longitude
Inclination (degrees)
Orbital Period (minutes)
Azimuth
Elevation
Range (km)
Doppler Factor

Next 0 passes for location: London (51.5072 / 0.1276)

Sorry there are no passes over London.